FW0091 Weather Reports


time (UTC)temp
C
wind
direction
speed
KPH
gust
KPH
rain 1hr
cm
rain 24hr
cm
rain mn
cm
humidity
%
barometer
mb
20260503200036 23 102 0.0 6.4 0.00 0.00 0.00 38 1013.2
20260503195532 23 103 0.0 9.7 0.00 0.00 0.00 42 1013.2
20260503195031 23 113 0.0 6.4 0.00 0.00 0.00 39 1013.2
20260503194531 22 115 1.6 4.8 0.00 0.00 0.00 38 1013.2
20260503194031 23 61 0.0 4.8 0.00 0.00 0.00 42 1013.2
20260503193530 23 129 0.0 3.2 0.00 0.00 0.00 41 1013.2
20260503193034 22 223 0.0 9.7 0.00 0.00 0.00 41 1013.2
20260503192528 22 98 3.2 9.7 0.00 0.00 0.00 46 1013.2
20260503192031 22 12 0.0 3.2 0.00 0.00 0.00 43 1013.3
20260503191528 22 46 0.0 3.2 0.00 0.00 0.00 44 1013.3
20260503191029 22 88 0.0 4.8 0.00 0.00 0.00 44 1013.4
20260503190527 22 109 0.0 9.7 0.00 0.00 0.00 42 1013.3
20260503190030 22 105 0.0 4.8 0.00 0.00 0.00 43 1013.3
20260503185527 22 61 0.0 11.3 0.00 0.00 0.00 46 1013.5
20260503185025 22 82 1.6 11.3 0.00 0.00 0.00 46 1013.5
20260503184525 22 54 0.0 6.4 0.00 0.00 0.00 47 1013.5
20260503184025 22 110 1.6 6.4 0.00 0.00 0.00 47 1013.5
20260503183524 22 316 0.0 3.2 0.00 0.00 0.00 44 1013.5
20260503183035 22 159 0.0 4.8 0.00 0.00 0.00 51 1013.6
20260503182523 22 151 0.0 4.8 0.00 0.00 0.00 50 1013.6
20260503182021 22 112 0.0 4.8 0.00 0.00 0.00 46 1013.6
20260503181522 21 92 0.0 4.8 0.00 0.00 0.00 50 1013.6
20260503181020 21 104 0.0 1.6 0.00 0.00 0.00 51 1013.8
20260503180520 22 119 0.0 4.8 0.00 0.00 0.00 52 1014.0
20260503180020 21 119 0.0 4.8 0.00 0.00 0.00 49 1013.9
20260503175518 21 59 0.0 4.8 0.00 0.00 0.00 53 1014.0
20260503175020 21 314 0.0 4.8 0.00 0.00 0.00 52 1014.0
20260503174517 21 115 0.0 3.2 0.00 0.00 0.00 55 1013.9
20260503174016 20 107 0.0 3.2 0.00 0.00 0.00 54 1014.1
20260503173519 20 161 0.0 1.6 0.00 0.00 0.00 55 1014.2
20260503173017 20 159 0.0 6.4 0.00 0.00 0.00 53 1014.1
20260503172614 20 323 1.6 9.7 0.00 0.00 0.00 53 1014.1
20260503172014 20 103 1.6 9.7 0.00 0.00 0.00 55 1014.0
20260503171513 19 227 0.0 6.4 0.00 0.00 0.00 55 1014.1
20260503171011 18 255 0.0 6.4 0.00 0.00 0.00 56 1014.1
20260503170510 18 292 0.0 4.8 0.00 0.00 0.00 56 1014.1
20260503150552 13 319 3.2 12.9 0.00 0.00 0.00 74 1014.8
20260503131044 11 297 3.2 8.0 0.00 0.00 0.00 81 1014.8
20260503130543 11 306 1.6 8.0 0.00 0.00 0.00 81 1014.8
20260503110532 12 311 3.2 9.7 0.00 0.00 0.00 79 1015.1
20260503081511 13 315 3.2 19.3 0.00 0.00 0.00 73 1015.0
20260503081107 14 310 3.2 8.0 0.00 0.00 0.00 72 1015.0
20260503080506 14 322 3.2 14.5 0.00 0.00 0.00 72 1015.0
20260503072502 14 318 1.6 14.5 0.00 0.00 0.00 71 1015.0
20260503072100 15 284 3.2 14.5 0.00 0.00 0.00 70 1015.0
20260503071600 15 329 3.2 6.4 0.00 0.00 0.00 70 1015.1
20260503071058 15 338 1.6 12.9 0.00 0.00 0.00 69 1015.1
20260503070600 15 316 4.8 12.9 0.00 0.00 0.00 69 1015.3
20260503055053 16 317 1.6 6.4 0.00 0.00 0.00 64 1014.9
20260503054558 16 313 0.0 8.0 0.00 0.00 0.00 63 1014.9
20260503054053 16 338 1.6 8.0 0.00 0.00 0.00 63 1014.7
20260503053553 16 271 1.6 8.0 0.00 0.00 0.00 62 1014.8
20260503053053 16 306 0.0 8.0 0.00 0.00 0.00 62 1014.8
20260503052553 17 296 1.6 12.9 0.00 0.00 0.00 62 1014.9
20260503052053 17 246 1.6 8.0 0.00 0.00 0.00 61 1014.8
20260503051553 17 293 1.6 4.8 0.00 0.00 0.00 61 1014.9
20260503051052 17 319 1.6 6.4 0.00 0.00 0.00 60 1014.9
20260503050552 17 315 1.6 6.4 0.00 0.00 0.00 59 1014.8
20260503050052 17 301 1.6 8.0 0.00 0.00 0.00 59 1014.7
20260503045552 17 262 1.6 8.0 0.00 0.00 0.00 58 1014.7
20260503045051 17 313 1.6 6.4 0.00 0.00 0.00 58 1014.7
20260503044554 18 307 1.6 9.7 0.00 0.00 0.00 57 1014.7
20260503044051 18 238 0.0 9.7 0.00 0.00 0.00 56 1014.7
20260503043551 18 314 1.6 9.7 0.00 0.00 0.00 56 1014.6
20260503043051 18 309 1.6 3.2 0.00 0.00 0.00 56 1014.5
20260503042551 18 311 0.0 4.8 0.00 0.00 0.00 55 1014.6
20260503042053 18 312 0.0 6.4 0.00 0.00 0.00 54 1014.5
20260503041551 18 313 0.0 6.4 0.00 0.00 0.00 54 1014.3
20260503041051 19 300 0.0 8.0 0.00 0.00 0.00 54 1014.3
20260503040550 19 328 1.6 9.7 0.00 0.00 0.00 53 1014.4
20260503040050 19 292 1.6 12.9 0.00 0.00 0.00 53 1014.2
20260503035551 19 265 1.6 12.9 0.00 0.00 0.00 52 1014.2
20260503035050 19 306 0.0 6.4 0.00 0.00 0.00 53 1014.2
20260503034551 20 279 1.6 8.0 0.00 0.00 0.00 52 1014.1
20260503034050 20 277 1.6 12.9 0.00 0.00 0.00 51 1014.1
20260503033549 20 320 1.6 12.9 0.00 0.00 0.00 51 1014.1
20260503033103 20 306 1.6 8.0 0.00 0.00 0.00 51 1014.1
20260503032549 20 321 1.6 8.0 0.00 0.00 0.00 50 1014.1
20260503032051 20 290 0.0 6.4 0.00 0.00 0.00 49 1014.1
20260503031556 21 302 0.0 6.4 0.00 0.00 0.00 49 1014.1
20260503031049 21 317 1.6 9.7 0.00 0.00 0.00 49 1013.9
20260503030552 21 312 3.2 9.7 0.00 0.00 0.00 48 1013.9
20260503030052 21 295 1.6 12.9 0.00 0.00 0.00 48 1014.0
20260503025548 21 344 1.6 8.0 0.00 0.00 0.00 49 1013.9
20260503025047 21 313 3.2 8.0 0.00 0.00 0.00 47 1013.7
20260503024607 21 309 1.6 6.4 0.00 0.00 0.00 48 1013.7
20260503024047 22 277 1.6 12.9 0.00 0.00 0.00 46 1013.8
20260503023549 22 292 1.6 17.7 0.00 0.00 0.00 46 1013.9
20260503023046 22 318 0.0 16.1 0.00 0.00 0.00 46 1013.9
20260503022547 22 304 1.6 16.1 0.00 0.00 0.00 46 1014.0
20260503022048 22 20 1.6 14.5 0.00 0.00 0.00 45 1013.9
20260503021546 22 257 0.0 14.5 0.00 0.00 0.00 45 1014.0
20260503021045 22 318 1.6 12.9 0.00 0.00 0.00 45 1014.1
20260503020545 22 315 4.8 16.1 0.00 0.00 0.00 44 1014.1
20260503020048 22 304 1.6 8.0 0.00 0.00 0.00 44 1014.1
20260503015548 23 317 4.8 17.7 0.00 0.00 0.00 43 1014.2
20260503015043 23 333 1.6 17.7 0.00 0.00 0.00 43 1014.2
20260503014544 23 252 3.2 12.9 0.00 0.00 0.00 42 1014.1
20260503014043 23 306 1.6 12.9 0.00 0.00 0.00 42 1014.1
20260503013546 23 313 4.8 17.7 0.00 0.00 0.00 41 1014.1
20260503013043 23 277 3.2 17.7 0.00 0.00 0.00 40 1014.1
20260503012549 24 314 4.8 20.9 0.00 0.00 0.00 41 1014.2
20260503012041 24 307 4.8 20.9 0.00 0.00 0.00 39 1014.3
20260503011544 24 306 1.6 12.9 0.00 0.00 0.00 39 1014.4
20260503011040 24 305 1.6 17.7 0.00 0.00 0.00 40 1014.4
20260503010542 24 315 1.6 9.7 0.00 0.00 0.00 40 1014.4
20260503010040 24 286 1.6 16.1 0.00 0.00 0.00 39 1014.4
20260503005540 25 285 1.6 11.3 0.00 0.00 0.00 39 1014.4
20260503005040 25 294 3.2 11.3 0.00 0.00 0.00 38 1014.3
20260503004543 25 295 1.6 17.7 0.00 0.00 0.00 38 1014.5
20260503004039 25 320 1.6 17.7 0.00 0.00 0.00 35 1014.5
20260503003543 25 355 0.0 9.7 0.00 0.00 0.00 37 1014.4
20260503003039 25 253 0.0 14.5 0.00 0.00 0.00 37 1014.5
20260503002539 25 304 1.6 16.1 0.00 0.00 0.00 36 1014.4
20260503002038 25 28 1.6 16.1 0.00 0.00 0.00 36 1014.4
20260503001539 25 299 1.6 14.5 0.00 0.00 0.00 37 1014.5
20260503001037 25 288 3.2 14.5 0.00 0.00 0.00 37 1014.5
20260503000537 25 147 0.0 8.0 0.00 0.00 0.00 37 1014.5
20260503000036 26 19 0.0 9.7 0.00 0.00 0.00 36 1014.5
20260502235535 26 350 3.2 9.7 0.00 0.00 0.00 37 1014.7
20260502235035 26 296 3.2 11.3 0.00 0.00 0.00 37 1014.7
20260502234535 26 342 0.0 3.2 0.00 0.00 0.00 36 1014.8
20260502234035 26 348 0.0 9.7 0.00 0.00 0.00 37 1014.7
20260502233534 26 340 0.0 9.7 0.00 0.00 0.00 36 1014.8
20260502233042 26 52 1.6 8.0 0.00 0.00 0.00 35 1014.8
20260502232534 26 290 1.6 8.0 0.00 0.00 0.00 36 1015.0
20260502232032 26 223 0.0 8.0 0.00 0.00 0.00 36 1015.0
20260502231549 26 302 1.6 8.0 0.00 0.00 0.00 37 1015.0
20260502231031 26 311 1.6 6.4 0.00 0.00 0.00 37 1015.1
20260502230531 26 96 0.0 12.9 0.00 0.00 0.00 39 1015.1
20260502230030 26 49 0.0 12.9 0.00 0.00 0.00 36 1015.3
20260502225528 27 338 0.0 6.4 0.00 0.00 0.00 39 1015.3
20260502225028 26 236 0.0 6.4 0.00 0.00 0.00 38 1015.3
20260502224530 26 104 0.0 4.8 0.00 0.00 0.00 39 1015.4
20260502224026 26 26 0.0 4.8 0.00 0.00 0.00 37 1015.6
20260502223525 26 211 0.0 4.8 0.00 0.00 0.00 37 1015.5
20260502223025 26 314 0.0 6.4 0.00 0.00 0.00 42 1015.6
20260502222525 26 21 0.0 11.3 0.00 0.00 0.00 41 1015.7
20260502222023 26 111 0.0 11.3 0.00 0.00 0.00 41 1015.8
20260502221523 26 140 0.0 8.0 0.00 0.00 0.00 41 1015.9
20260502221023 26 155 0.0 8.0 0.00 0.00 0.00 39 1016.0
20260502220522 26 306 0.0 8.0 0.00 0.00 0.00 40 1016.0
20260502220031 26 355 0.0 8.0 0.00 0.00 0.00 39 1016.2
20260502215520 26 320 0.0 12.9 0.00 0.00 0.00 39 1016.3
20260502215020 25 236 4.8 14.5 0.00 0.00 0.00 42 1016.4
20260502214518 26 99 0.0 9.7 0.00 0.00 0.00 41 1016.2
20260502214017 25 91 0.0 4.8 0.00 0.00 0.00 42 1016.4
20260502213520 25 140 0.0 4.8 0.00 0.00 0.00 45 1016.4
20260502213017 26 138 1.6 3.2 0.00 0.00 0.00 46 1016.3
20260502212515 25 127 0.0 6.4 0.00 0.00 0.00 49 1016.4
20260502212014 24 125 0.0 8.0 0.00 0.00 0.00 46 1016.4
20260502211520 24 215 0.0 6.4 0.00 0.00 0.00 41 1016.4
20260502211017 23 202 0.0 6.4 0.00 0.00 0.00 45 1016.5
20260502210511 24 207 0.0 6.4 0.00 0.00 0.00 42 1016.6
20260502210009 24 261 0.0 4.8 0.00 0.00 0.00 48 1016.7
20260502205510 23 171 0.0 6.4 0.00 0.00 0.00 48 1016.8
20260502205008 23 224 0.0 11.3 0.00 0.00 0.00 47 1016.8
20260502204508 23 123 1.6 11.3 0.00 0.00 0.00 47 1016.8
20260502204008 24 146 0.0 4.8 0.00 0.00 0.00 49 1016.8
20260502203506 23 269 0.0 9.7 0.00 0.00 0.00 49 1016.8
20260502203006 23 224 3.2 9.7 0.00 0.00 0.00 48 1016.7
20260502202504 22 89 0.0 4.8 0.00 0.00 0.00 50 1016.8
20260502202003 22 89 0.0 11.3 0.00 0.00 0.00 49 1016.8
20260502201502 22 306 0.0 11.3 0.00 0.00 0.00 48 1016.8
20260502201003 22 94 0.0 4.8 0.00 0.00 0.00 53 1016.9
20260502200600 21 94 0.0 4.8 0.00 0.00 0.00 52 1016.9